Terminal Aerodrome Forecast
Issued by NWS

Home | Current Version | Previous Version | Text Only | Print | Product List | Glossary On
Versions: 1 2 3 4 5 6 7 8 9 10 11 12 13 14 15 16 17 18 19 20 21 22 23 24 25 26 27 28 29 30 31
000
FTUS44 KHGX 201454 AAB
TAFLBX
TAF AMD
KLBX 201454Z 2015/2112 34008KT 3SM RA BR FEW030 BKN045 OVC080
      TEMPO 2017/2019 6SM -RA BKN035 OVC090
     FM201900 36006KT P6SM VCSH BKN120
     FM210200 VRB02KT P6SM BKN250
     FM210700 VRB02KT 6SM BR SCT250=

USA.gov is the U.S. government's official web portal to all federal, state and local government web resources and services.